{"data":{"norad_id":48149,"epoch":"2026-09-19T04:32:18.416256Z","epoch_age_seconds":146901,"freshness":"FRESH","line1":"1 48149U 21027BK  26262.18910204  .00001378  00000+0  56180-4 0  9993","line2":"2 48149  53.1608 332.4392 0001457  80.4579 279.6588 15.31696370302323","mean_motion":15.3169637,"eccentricity":0.0001457,"inclination_deg":53.1608,"raan_deg":332.4392,"arg_perigee_deg":80.4579,"mean_anomaly_deg":279.6588,"bstar":5.618e-5,"rev_number":30232,"period_min":94.013410764955,"perigee_km":469.75293313332,"apogee_km":471.74869904293,"semimajor_km":6848.8878160881,"source":"CELESTRAK","updated_at":"2026-09-20T09:00:38.926472Z"}}